Regional Weather Roundup
Issued by NWS

Home | Current Version | Previous Version | Text Only | Print | Product List | Glossary On
Versions: 1 2 3 4 5 6 7 8 9 10 11 12 13 14 15 16 17 18 19 20 21 22 23 24 25 26 27 28 29 30 31 32 33 34 35 36 37 38 39 40 41 42 43 44 45 46 47 48 49 50
000
ASUS43 KMKX 290911
RWRWI

WISCONSIN REGIONAL WEATHER ROUNDUP
NATIONAL WEATHER SERVICE MILWAUKEE/SULLIVAN WI
400 AM CDT FRI AUG 29 2014

NOTE: "FAIR" INDICATES FEW OR NO CLOUDS BELOW 12,000 FEET WITH NO
SIGNIFICANT WEATHER AND/OR OBSTRUCTIONS TO VISIBILITY.

WIZ001-002-006>008-014>016-023>028-291000-
NORTHWEST WISCONSIN

CITY           SKY/WX    TMP DP  RH WIND       PRES   REMARKS
SUPERIOR ARPT  CLOUDY    62  60  94 NE7       29.86F
ASHLAND        CLOUDY    64  59  83 S6        29.91F
HAYWARD        CLOUDY    62  59  90 SE8       29.90F
SIREN          CLOUDY    64  60  88 SE12G18   29.86S
RICE LAKE      CLOUDY    62  57  86 SE12G17   29.91S
LADYSMITH      CLOUDY    60  59  95 SE8       29.94S
EAU CLAIRE     HVY RAIN  59  58  96 SE8       29.90F FOG
MENOMONIE      RAIN      61  59  94 E7        29.90S
NEW RICHMOND   LGT RAIN  63  62  98 SE10      29.86S
OSCEOLA        CLOUDY    64  64 100 SE9       29.87S
$$

WIZ003>005-009-010-017-018-291000-
NORTH CENTRAL WISCONSIN

CITY           SKY/WX    TMP DP  RH WIND       PRES   REMARKS
WOODRUFF       CLOUDY    59  56  88 SE8       29.96F
RHINELANDER    CLOUDY    57  56  96 SE8       29.98F
EAGLE RIVER    DRIZZLE  N/A N/A N/A SE5       29.98F
LAND O LAKES   CLOUDY    60  54  80 S9        29.99F
PHILLIPS       CLOUDY    58  57  96 SE8       29.94F FOG
TOMAHAWK       DRIZZLE   56  55  95 CALM      29.97S
MEDFORD        CLOUDY    55  55  97 E6        29.95F
MERRILL        HVY RAIN  57  57 100 SE5       29.97S
$$

WIZ029-030-035-036-043>047-291000-
CENTRAL WISCONSIN

CITY           SKY/WX    TMP DP  RH WIND       PRES   REMARKS
WAUSAU         CLOUDY    58  57  97 SE6       29.96S
MOSINEE        CLOUDY    55  55 100 E7        29.97F
MARSHFIELD     CLOUDY    58  57  97 E7        29.95F
STEVENS POINT  CLOUDY    57  57  97 E6        29.97F
WAUPACA        CLOUDY    62  61  95 CALM      29.97F
WAUTOMA        CLOUDY    61  60  96 CALM      29.96F
WISC RAPIDS    CLOUDY    60  58  92 E6        29.96F
CAMP DOUGLAS   CLOUDY    60  60 100 SE3       29.94S
$$

WIZ011>013-019>022-031-037>040-048>050-291000-
NORTHEAST WISCONSIN

CITY           SKY/WX    TMP DP  RH WIND       PRES   REMARKS
ANTIGO         RAIN      55  55 100 SE10      29.99F
STURGEON BAY   CLOUDY    61  57  88 SE6       30.02F
GREEN BAY      RAIN      61  60  97 E8        29.98F
MANITOWOC      LGT RAIN  64  61  90 SE7       29.99F
APPLETON       CLOUDY    61  59  94 E5        29.97F
CLINTONVILLE   DRIZZLE   59  59 100 E6        29.98F
OSHKOSH        CLOUDY    64  62  93 SE5       29.95F
$$

WIZ032>034-041-042-053>061-291000-
SOUTHWEST WISCONSIN

CITY           SKY/WX    TMP DP  RH WIND       PRES   REMARKS
LA CROSSE      CLOUDY    66  62  87 E8        29.89F
SPARTA         CLOUDY    62  59  92 SE3       29.94R
VIROQUA        CLOUDY    64  64 100 S5        29.94R
BOSCOBEL       TSTM      69  65  86 S6        29.93R VSB 1
PRAIRIE DU CHI CLOUDY    69  66  89 CALM      29.90F
PLATTEVILLE    CLOUDY    66  65  97 CALM      29.94S
$$

WIZ056-057-062-063-064-067-068-291000-
SOUTH CENTRAL WISCONSIN

CITY           SKY/WX    TMP DP  RH WIND       PRES   REMARKS
BARABOO/DELLS  MOCLDY    65  61  87 S5        29.94S
LONE ROCK      CLOUDY    69  63  81 CALM      29.93S
WATERTOWN      PTCLDY    64  64 100 SE3       29.95S
MADISON        MOCLDY    66  62  87 S7        29.94F
MIDDLETON      CLOUDY    67  65  94 SE5       29.95S
MONROE         PTCLDY    64  63  94 S9        29.95S FOG
JANESVILLE     PTCLDY    66  64  94 SE5       29.95S FOG
$$

WIZ051-052-058>065-066-070>072-291000-
SOUTHEAST WISCONSIN

CITY           SKY/WX    TMP DP  RH WIND       PRES   REMARKS
MILWAUKEE      PTCLDY    70  66  87 S10       29.97S
WAUKESHA       PTCLDY    63  61  94 CALM      29.98S
MILWAUKEE/TIMM MOCLDY    68  63  83 SE5       29.98S
RACINE         MOCLDY    71  67  87 S10       29.99S
BURLINGTON     MOCLDY    63  63  99 CALM      29.97S
KENOSHA        MOCLDY    71  67  87 S10       29.98S
FOND DU LAC    CLOUDY    65  60  84 SE6       29.96S
SHEBOYGAN      MOCLDY    66  60  81 S7        29.98S
WEST BEND      MOCLDY    64  61  88 SE3       29.97S
JUNEAU         MOCLDY    64  61  89 SE6       29.97R
$$

LSZ147-162-291000-
LAKE SUPERIOR

STATION/POSITION TIME  TEMP    WIND        PRES    WAVE
                       AIR SEA DIR/SP/G            HT/PER
                 (UTC) (F)     (DEG/KT/KT) (MB)    (FT/S)
W MID LAKE BUOY  0850   59 56  140/  6/  6 1013.1F   1
DEVILS ISLAND    0900   62      90/  4/  4 1012.6F
PORT WING        0800   63      50/  2/  3 1012.5F
SAXON HARBOR     0800   67     190/  3/  8 1012.9F
$$

LMZ867-665-643>646-291000-
LAKE MICHIGAN

STATION/POSITION TIME  TEMP    WIND        PRES    WAVE
                       AIR SEA DIR/SP/G            HT/PER
                 (UTC) (F)     (DEG/KT/KT) (MB)    (FT/S)
N MID LAKE BUOY  0850   65 65  150/ 12/ 14 1016.6F   2/ 3
NORTHPORT PIER   0800   65     130/ 12/ 14 1016.6F
SISTER BAY       0811   64     160/  6/  8   N/A
ALGOMA LAKESHORE 0708          170/ 13/ 14   N/A
KEWAUNEE LAKESHO 0800   65     150/  7/  9 1015.3F
SHEBOYGAN LAKESH 0900   67 69  150/ 17/ 19 1015.0F
ATWATER BUOY     0800   70     140/ 16/ 17 1015.8F
MILWAUKEE LAKESH 0800   69     150/ 11/ 12   N/A
S MID LAKE BUOY  0750   69 69  120/ 10/ 12 1015.8F   2/ 5
KENOSHA   LAKESH 0900   72     160/ 16/ 18 1014.6S
$$

TC  - TEMPERATURE IN CELSIUS
VSB - VISIBILITY IN STATUTE MILES
WCI - WIND CHILL INDEX
HX  - HEAT INDEX




USA.gov is the U.S. government's official web portal to all federal, state and local government web resources and services.